星链-30976 (STARLINK-30976 )

导读 | 星芒AI

STARLINK-30976 是 SpaceX 星链计划中的一颗低轨通信卫星,属于第 13 批组网发射的星链卫星之一。该卫星于 2023 年发射,运行在约 550 公里的近地轨道,旨在为全球用户提供高速互联网服务。作为星链星座的一部分,它通过与其他卫星协同工作,实现全球范围的宽带覆盖,尤其服务于偏远地区。该卫星采用可再生太阳能供电,并具备自动避撞功能,以确保轨道安全。星链项目致力于构建低延迟、高带宽的全球网络基础设施。

基本信息
目录编号:
58447
目录名称:
STARLINK-30976
国际标识:
2023-183L
轨道中心:
EARTH
卫星名称:
星链-30976
卫星全名:
星链-30976 (STARLINK-30976 )
卫星状态:
在轨 (已飞行703 天)
发射日期:
2023-11-28 UTC
国别 :
美国 (US)
星等 :
--
轨道信息
数据来源 国际轨道数据
星历时间: 2025-10-30T22:52:32+0800
22小时前
查看轨道信息
半长轴: 6937.216km
偏心率: 0.0001277
轨道倾角: 43.005°
近地点辐角 264.535°
升交点赤经 29.663°
平近点角 95.535°
近地点: 558.195km
远地点: 559.967km
周期: 95.838分钟
每日圈数: 15.025364
详细信息
固有亮度:
5
最大亮度:
0.3
卫星平台:
Starlink v2.0 mini
覆盖范围:
全球
运营商:
太空探索技术公司
运营商所在国:
美国
制造商(研发单位):
太空探索技术公司
制造商所在国:
美国
使用方式:
暂无
卫星简介
星链(Starlink)计划是由太空探索技术公司(SpaceX)提出的一个巨型低轨卫星互联网星座项目,计划在2019年至2024年间在太空搭建由约1.2万颗卫星组成的“星链”网络,其中1584颗将部署在地球上空550千米处的近地轨道,并从2020年开始工作。该卫星仍在工作。
2D轨道图
3D轨道图
轨道高度分析图
轨道倾角分析图
轨道综合分析图
查看轨道综合分析图